Crookston, MN

8:15 AM CDT on September 26, 2017 (GMT -0500)
Crookston Municipal-Kirkwood

Weather History for KCKN - October, 2012

Change the Weather History Date:

Tuesday, October 2, 2012

  Actual Average Record
Temperature  
Mean Temperature 58 °F -  
Max Temperature 77 °F 58 °F 82 °F (1997)
Min Temperature 39 °F 36 °F 21 °F (1999)
Degree Days  
Heating Degree Days 7    
Growing Degree Days 8 (Base 50)    
Moisture  
Dew Point 31 °F    
Average Humidity 42    
Maximum Humidity 65    
Minimum Humidity 18    
Precipitation  
Precipitation 0.00 in - - ()
Sea Level Pressure  
Sea Level Pressure 29.78 in    
Wind  
Wind Speed 13 mph (SSW)    
Max Wind Speed 36 mph    
Max Gust Speed 44 mph    
Visibility 10 miles    
Events      
Averages and records for this station are not official NWS values.
T = Trace of Precipitation, MM = Missing Value Source: NWS Daily Summary

Daily Weather History Graph

Daily Weather History Graph

Search for Another Location

Airport or City:

Trip Planner

Search our weather history database for the weather conditions in past years. The results will help you decide how hot, cold, wet, or windy it might be!

Date:

Astronomy

Oct. 02, 2012 Rise Set
Actual Time 7:27 AM CDT 7:02 PM CDT
Civil Twilight 6:56 AM CDT 7:33 PM CDT
Nautical Twilight 6:20 AM CDT 8:09 PM CDT
Astronomical Twilight 5:44 AM CDT 8:45 PM CDT
Moon 8:00 PM CDT (10/2) 10:10 AM CDT (10/2)
Length of Visible Light 12h 36m
Length of Day
11h 34m
Waning Gibbous, 94% of the Moon is Illuminated
Oct 2
Waning Gibbous
Oct 8
Last Quarter
Oct 15
New
Oct 21
First Quarter
Oct 29
Full

Hourly Weather History & Observations

Time (CDT) Temp. Windchill Dew Point Humidity Pressure Visibility Wind Dir Wind Speed Gust Speed Precip Events Conditions
12:14 AM 41.0 °F 36.4 °F 26.6 °F 57% 29.95 in 7.0 mi SSE 6.9 mph - N/A   Clear
12:35 AM 39.2 °F 35.0 °F 26.6 °F 61% 29.94 in 7.0 mi South 5.8 mph - N/A   Clear
12:55 AM 39.2 °F 34.2 °F 26.6 °F 61% 29.93 in 10.0 mi SSE 6.9 mph - N/A   Clear
1:14 AM 39.2 °F 35.0 °F 26.6 °F 61% 29.93 in 10.0 mi SSE 5.8 mph - N/A   Clear
1:35 AM 39.2 °F 33.6 °F 26.6 °F 61% 29.93 in 10.0 mi SSE 8.1 mph - N/A   Clear
1:55 AM 39.2 °F 33.6 °F 26.6 °F 61% 29.92 in 10.0 mi SSE 8.1 mph - N/A   Clear
2:14 AM 39.2 °F 33.6 °F 26.6 °F 61% 29.92 in 10.0 mi SE 8.1 mph - N/A   Clear
2:35 AM 39.2 °F 33.0 °F 26.6 °F 61% 29.91 in 10.0 mi SSE 9.2 mph - N/A   Clear
2:55 AM 39.2 °F 33.6 °F 26.6 °F 61% 29.91 in 10.0 mi South 8.1 mph - N/A   Clear
3:14 AM 39.2 °F 33.6 °F 26.6 °F 61% 29.90 in 10.0 mi SSE 8.1 mph - N/A   Clear
3:35 AM 39.2 °F 33.0 °F 28.4 °F 65% 29.89 in 10.0 mi South 9.2 mph - N/A   Clear
3:54 AM 39.2 °F 34.2 °F 28.4 °F 65% 29.89 in 10.0 mi South 6.9 mph - N/A   Clear
4:14 AM 39.2 °F 33.6 °F 26.6 °F 61% 29.89 in 10.0 mi SSE 8.1 mph - N/A   Clear
4:35 AM 39.2 °F 33.6 °F 26.6 °F 61% 29.88 in 10.0 mi SSE 8.1 mph - N/A   Clear
4:54 AM 39.2 °F 34.2 °F 28.4 °F 65% 29.88 in 10.0 mi South 6.9 mph - N/A   Clear
5:35 AM 39.2 °F 33.0 °F 28.4 °F 65% 29.87 in 10.0 mi South 9.2 mph - N/A   Clear
5:54 AM 42.8 °F 37.0 °F 28.4 °F 57% 29.87 in 10.0 mi South 10.4 mph - N/A   Clear
6:14 AM 44.6 °F 39.2 °F 28.4 °F 53% 29.86 in 10.0 mi South 10.4 mph - N/A   Clear
6:35 AM 44.6 °F 38.8 °F 28.4 °F 53% 29.85 in 10.0 mi South 11.5 mph - N/A   Clear
6:54 AM 44.6 °F 38.4 °F 28.4 °F 53% 29.85 in 10.0 mi South 12.7 mph - N/A   Clear
7:14 AM 44.6 °F 38.1 °F 28.4 °F 53% 29.85 in 10.0 mi South 13.8 mph - N/A   Clear
7:35 AM 46.4 °F 39.8 °F 28.4 °F 50% 29.84 in 10.0 mi South 16.1 mph - N/A   Clear
7:54 AM 46.4 °F 40.4 °F 28.4 °F 50% 29.84 in 10.0 mi South 13.8 mph - N/A   Clear
8:15 AM 46.4 °F 40.1 °F 28.4 °F 50% 29.83 in 10.0 mi South 15.0 mph - N/A   Clear
8:35 AM 48.2 °F - 28.4 °F 46% 29.83 in 10.0 mi South 16.1 mph 21.9 mph N/A   Clear
8:54 AM 50.0 °F - 28.4 °F 43% 29.82 in 7.0 mi South 19.6 mph 24.2 mph N/A   Clear
9:15 AM 53.6 °F - 28.4 °F 38% 29.81 in 10.0 mi South 21.9 mph 26.5 mph N/A   Clear
9:35 AM 55.4 °F - 28.4 °F 36% 29.79 in 10.0 mi South 23.0 mph 29.9 mph N/A   Clear
9:54 AM 57.2 °F - 28.4 °F 33% 29.79 in 10.0 mi South 21.9 mph 34.5 mph N/A   Clear
10:15 AM 59.0 °F - 28.4 °F 31% 29.78 in 10.0 mi South 25.3 mph 34.5 mph N/A   Clear
10:35 AM 60.8 °F - 30.2 °F 31% 29.77 in 10.0 mi SSW 26.5 mph 35.7 mph N/A   Clear
10:54 AM 62.6 °F - 30.2 °F 30% 29.75 in 10.0 mi South 28.8 mph 38.0 mph N/A   Clear
11:15 AM 64.4 °F - 28.4 °F 26% 29.73 in 7.0 mi SSW 27.6 mph 41.4 mph N/A   Clear
11:35 AM 64.4 °F - 28.4 °F 26% 29.73 in 10.0 mi South 32.2 mph 39.1 mph N/A   Clear
11:54 AM 66.2 °F - 28.4 °F 24% 29.73 in 7.0 mi SSW 28.8 mph 41.4 mph N/A   Clear
12:15 PM 68.0 °F - 28.4 °F 23% 29.72 in 7.0 mi SSW 34.5 mph 42.6 mph N/A   Clear
12:35 PM 69.8 °F - 28.4 °F 21% 29.71 in 10.0 mi SSW 31.1 mph 43.7 mph N/A   Clear
12:54 PM 69.8 °F - 28.4 °F 21% 29.70 in 10.0 mi SSW 28.8 mph 38.0 mph N/A   Clear
1:15 PM 71.6 °F - 28.4 °F 20% 29.69 in 10.0 mi SSW 33.4 mph 41.4 mph N/A   Clear
1:35 PM 73.4 °F - 28.4 °F 19% 29.67 in 10.0 mi SSW 35.7 mph 43.7 mph N/A   Clear
1:54 PM 73.4 °F - 28.4 °F 19% 29.69 in 10.0 mi SSW 33.4 mph 43.7 mph N/A   Clear
2:15 PM 73.4 °F - 28.4 °F 19% 29.68 in 10.0 mi SSW 31.1 mph 39.1 mph N/A   Clear
2:34 PM 75.2 °F - 30.2 °F 19% 29.67 in 10.0 mi SSW 32.2 mph 41.4 mph N/A   Clear
2:54 PM 75.2 °F - 30.2 °F 19% 29.66 in 10.0 mi SSW 29.9 mph 38.0 mph N/A   Clear
3:15 PM 75.2 °F - 30.2 °F 19% 29.66 in 10.0 mi SW 28.8 mph 38.0 mph N/A   Clear
3:34 PM 75.2 °F - 30.2 °F 19% 29.66 in 10.0 mi SW 28.8 mph 35.7 mph N/A   Clear
3:54 PM 75.2 °F - 30.2 °F 19% 29.66 in 10.0 mi SW 24.2 mph 31.1 mph N/A   Clear
4:15 PM 75.2 °F - 30.2 °F 19% 29.65 in 10.0 mi SSW 25.3 mph 32.2 mph N/A   Clear
4:34 PM 77.0 °F - 30.2 °F 18% 29.65 in 10.0 mi SW 25.3 mph 32.2 mph N/A   Clear
5:15 PM 77.0 °F - 32.0 °F 19% 29.65 in 10.0 mi SW 20.7 mph 27.6 mph N/A   Clear
5:34 PM 77.0 °F - 32.0 °F 19% 29.65 in 10.0 mi SW 21.9 mph 27.6 mph N/A   Clear
6:15 PM 75.2 °F - 32.0 °F 21% 29.66 in 10.0 mi SW 16.1 mph 20.7 mph N/A   Clear
6:34 PM 73.4 °F - 33.8 °F 23% 29.67 in 10.0 mi West 8.1 mph - N/A   Clear
6:55 PM 71.6 °F - 37.4 °F 29% 29.69 in 10.0 mi WNW 9.2 mph - N/A   Clear
7:14 PM 69.8 °F - 39.2 °F 33% 29.70 in 10.0 mi NW 8.1 mph - N/A   Clear
7:34 PM 68.0 °F - 39.2 °F 35% 29.70 in 10.0 mi NW 13.8 mph - N/A   Clear
7:55 PM 64.4 °F - 39.2 °F 40% 29.71 in 10.0 mi NW 10.4 mph - N/A   Clear
8:14 PM 60.8 °F - 39.2 °F 45% 29.72 in 10.0 mi NW 8.1 mph - N/A   Clear
8:34 PM 59.0 °F - 39.2 °F 48% 29.72 in 10.0 mi NW 10.4 mph - N/A   Clear
8:55 PM 57.2 °F - 37.4 °F 48% 29.73 in 7.0 mi WNW 8.1 mph - N/A   Clear
9:14 PM 55.4 °F - 37.4 °F 51% 29.73 in 10.0 mi NW 5.8 mph - N/A   Clear
9:34 PM 55.4 °F - 37.4 °F 51% 29.74 in 10.0 mi WNW 5.8 mph - N/A   Clear
9:55 PM 57.2 °F - 37.4 °F 48% 29.75 in 10.0 mi WNW 4.6 mph - N/A   Clear
10:14 PM 55.4 °F - 37.4 °F 51% 29.76 in 10.0 mi WNW 4.6 mph - N/A   Clear
10:34 PM 55.4 °F - 37.4 °F 51% 29.77 in 10.0 mi WNW 4.6 mph - N/A   Clear
10:55 PM 53.6 °F - 37.4 °F 54% 29.77 in 10.0 mi WNW 4.6 mph - N/A   Clear
11:14 PM 51.8 °F - 37.4 °F 58% 29.77 in 10.0 mi West 4.6 mph - N/A   Clear
11:35 PM 50.0 °F - 35.6 °F 58% 29.78 in 10.0 mi Calm Calm - N/A   Clear
11:55 PM 51.8 °F - 37.4 °F 58% 29.79 in 4.0 mi Calm Calm - N/A   Haze